GFSSW_500_rhum_195.txt.gz
RH
3 6 5 5 6 6 5 4 4 3 4 6 4 3 3 3 3 5 5 5 5 5 5 6 6 7 7 8 9 9 10 10 10 10 11 11 11 10 10 10 12 13 14 13 13
5 3 6 6 6 6 6 4 4 4 3 4 5 5 4 3 3 4 6 6 6 6 6 6 6 7 7 8 8 8 8 9 10 10 9 9 8 8 8 10 11 12 11 11 11
8 4 4 6 6 6 6 5 4 4 3 3 4 5 5 5 5 5 6 6 6 7 7 7 7 7 8 7 7 5 5 7 7 8 6 6 6 7 7 6 10 10 8 8 10
11 9 3 4 6 6 6 6 4 3 4 3 3 4 4 4 5 4 5 6 6 7 7 7 6 6 6 4 4 5 5 5 5 4 4 5 6 8 5 5 7 8 7 8 10
14 12 7 3 5 6 6 6 5 3 4 3 3 3 3 4 4 4 4 4 4 4 4 4 4 4 5 5 6 6 7 9 6 6 5 5 5 5 4 7 8 7 9 9 9
31 13 10 6 3 5 6 6 6 4 3 4 3 3 3 3 4 3 4 5 5 6 6 6 6 6 6 6 6 7 11 10 7 5 6 6 6 6 6 6 5 6 6 9 13
75 16 14 11 4 3 5 5 6 4 3 4 5 3 3 3 3 3 4 4 5 6 6 7 7 7 6 6 7 8 13 17 13 6 6 6 7 22 25 7 6 8 13 16 17
88 40 16 16 9 3 4 5 5 4 2 3 4 5 3 4 3 4 4 5 5 6 6 6 6 6 6 6 6 7 9 12 12 9 8 7 19 33 39 42 21 18 20 22 23
68 77 22 18 15 7 3 4 5 4 3 2 3 4 4 6 5 6 5 6 6 6 6 6 6 6 6 6 6 6 6 8 9 8 10 22 19 24 25 25 25 26 32 33 33
30 92 36 20 18 14 6 3 3 4 3 2 3 3 4 6 7 7 7 7 6 6 6 5 5 6 6 6 7 7 6 6 5 8 10 14 26 25 25 19 25 32 32 39 44
19 96 61 24 22 18 13 5 3 3 3 3 2 3 3 4 5 6 6 6 6 5 5 4 5 6 7 8 7 6 6 6 5 9 10 13 22 27 24 20 22 25 31 38 39
27 95 88 35 24 21 17 12 5 3 3 3 2 3 3 3 4 4 4 5 4 4 4 4 5 6 8 8 7 7 7 7 7 12 19 26 28 28 33 34 26 24 33 37 32
60 92 98 61 38 26 16 15 13 7 3 3 3 3 3 3 3 4 4 4 4 3 3 4 6 8 8 8 7 7 7 8 9 14 19 21 30 38 40 40 34 37 32 30 33
90 42 100 90 61 26 18 20 18 15 8 4 3 3 3 3 3 3 3 3 3 3 4 6 9 8 8 8 9 8 10 13 16 14 18 24 33 31 37 42 39 34 31 32 29
100 90 93 98 75 73 25 25 24 20 13 10 6 4 3 3 3 3 3 3 4 6 8 10 10 10 9 9 11 8 14 14 16 19 25 39 43 31 32 29 30 35 30 30 27
98 100 86 97 91 79 39 32 32 27 19 12 11 10 5 5 4 4 4 6 9 10 10 10 8 9 10 11 12 15 14 20 21 22 25 34 51 19 31 30 30 37 32 27 28
99 100 98 98 81 85 59 42 40 39 17 16 10 11 12 10 12 12 10 10 12 11 9 10 10 12 14 14 15 15 16 21 21 23 28 42 40 31 32 34 32 40 31 27 30
99 99 100 71 82 100 87 49 51 22 18 14 12 11 12 12 11 10 12 11 11 10 10 12 12 16 17 22 23 24 22 25 27 30 41 39 33 30 33 35 38 37 35 29 32
99 99 99 91 94 99 71 69 50 42 29 16 14 15 14 13 13 13 12 14 13 11 12 12 11 14 23 29 32 42 35 29 30 30 30 28 28 33 33 37 42 42 36 33 32
98 100 99 99 96 100 88 82 53 54 53 28 19 17 16 15 14 13 13 12 13 13 17 21 20 22 34 51 67 32 33 31 30 35 40 36 41 36 39 44 45 48 47 39 32
99 98 100 99 98 100 97 56 47 60 63 54 41 31 21 18 17 15 15 17 20 22 26 29 29 38 54 52 69 34 33 38 44 51 64 64 40 39 39 42 50 52 47 40 37
100 98 100 99 100 99 92 44 66 71 69 72 59 40 33 30 26 26 23 24 26 27 26 33 81 59 67 65 57 61 58 62 63 56 61 68 29 39 38 42 51 51 47 44 38
99 99 99 100 100 97 79 100 100 93 77 77 64 52 57 52 45 39 29 26 28 31 32 46 89 81 64 61 68 69 68 69 74 73 59 72 41 42 48 44 41 44 42 42 43
100 100 100 100 98 85 96 80 89 91 84 75 71 67 64 45 32 22 24 37 59 80 85 95 95 77 56 74 84 92 86 82 94 91 65 56 56 52 52 50 50 46 44 43 43
100 100 100 99 100 98 98 84 100 100 82 90 77 64 61 40 55 68 81 84 77 88 96 97 91 88 74 86 87 74 71 78 83 66 75 59 64 68 66 67 67 61 55 55 55
98 100 100 100 99 98 93 88 100 100 95 92 66 95 76 68 72 92 95 95 96 92 98 96 91 90 76 89 87 69 64 64 63 66 56 42 46 68 87 90 84 78 74 76 74
94 99 100 97 100 99 87 98 93 100 95 100 100 100 92 73 98 98 99 100 97 98 98 99 97 96 87 100 95 80 46 50 47 48 49 41 44 58 94 100 100 99 98 95 89

GFSSW_500_rhum_198.txt.gz
RH
14 6 4 5 5 5 6 6 6 5 4 4 3 4 3 3 4 4 4 4 5 5 5 5 5 5 6 6 7 8 8 8 10 10 10 10 10 10 9 9 10 12 12 10 10
14 12 5 5 5 5 6 6 6 5 4 4 3 5 3 3 4 4 4 5 5 5 5 5 5 5 6 6 7 7 7 9 10 10 9 8 9 9 8 7 11 11 10 7 8
38 16 12 4 5 5 5 6 6 6 5 4 3 4 5 3 4 4 4 5 5 5 5 5 5 6 6 6 7 6 7 8 8 8 6 6 5 6 5 5 8 8 5 5 5
76 36 20 10 4 5 5 5 6 6 6 4 4 3 5 4 4 4 5 5 6 6 6 6 6 6 6 6 6 5 6 6 6 5 5 5 5 5 5 5 5 5 4 5 7
27 69 38 15 8 3 6 6 6 6 6 5 4 4 4 5 5 5 4 4 5 6 6 6 6 6 7 7 6 4 4 5 6 10 9 7 6 6 6 6 7 10 6 6 6
3 44 61 27 13 6 3 6 6 6 6 6 4 4 3 4 7 5 5 6 6 7 7 7 7 6 5 4 4 5 5 6 10 10 9 10 8 10 7 6 8 32 25 9 9
4 3 62 41 17 12 4 3 6 6 6 6 6 4 3 4 5 4 5 5 5 5 4 4 4 4 4 5 5 6 6 8 8 10 16 17 14 10 6 7 28 36 42 20 17
4 4 4 73 28 17 10 4 4 6 7 6 6 4 3 4 3 4 4 5 5 4 4 5 6 6 6 6 6 6 6 6 8 8 9 10 11 11 11 11 21 29 30 24 25
4 4 3 40 40 24 17 6 4 4 6 7 6 5 3 4 3 4 4 4 4 4 4 4 5 6 6 6 6 6 6 7 7 7 6 6 6 8 12 21 28 24 25 21 25
3 4 5 5 70 52 25 13 5 4 4 6 6 6 4 4 5 4 4 4 4 4 4 4 5 6 6 6 6 6 6 6 6 6 6 6 6 6 9 18 26 23 25 19 20
8 12 6 4 46 57 67 22 9 5 3 4 5 6 4 3 4 6 5 5 4 4 4 5 5 5 7 6 6 6 6 6 7 7 6 6 7 7 7 16 23 28 31 42 45
23 38 5 6 32 71 85 54 17 8 4 3 4 5 5 4 4 5 6 6 6 5 6 6 5 6 6 5 5 5 6 6 7 8 7 8 11 10 9 16 24 31 38 40 37
2 4 23 19 40 92 63 81 25 14 7 4 3 5 5 4 3 4 5 6 6 7 7 6 6 6 5 4 4 5 6 8 8 8 7 7 10 10 12 14 20 36 43 42 40
4 4 99 100 58 100 76 81 42 22 10 6 4 3 4 5 3 3 3 4 5 5 6 6 5 5 4 4 4 6 9 10 9 8 8 9 15 16 17 18 23 40 41 40 35
6 83 100 100 87 75 47 70 62 29 15 10 5 4 4 4 4 3 3 3 3 4 4 4 4 4 4 3 5 7 10 10 8 9 11 23 25 26 19 18 23 33 36 36 30
11 49 89 100 100 81 90 64 66 37 23 15 9 5 4 3 3 3 3 3 3 3 4 4 4 3 3 4 6 10 10 9 11 11 23 26 32 19 15 17 23 33 34 35 35
15 12 99 100 98 97 100 86 73 74 47 21 15 9 5 4 3 3 3 3 3 3 3 3 3 3 3 5 9 11 11 12 13 15 24 28 34 26 19 21 27 29 32 39 35
22 79 100 99 100 100 100 100 85 70 53 40 25 14 9 6 4 3 4 3 3 3 3 3 3 3 6 11 13 15 16 17 20 22 20 26 27 31 29 24 26 28 31 43 39
36 52 99 100 99 100 100 99 91 45 42 45 30 19 16 11 8 6 4 3 3 3 3 3 5 8 10 14 16 15 16 17 22 21 23 24 30 33 27 24 25 36 47 42 40
60 37 99 98 100 100 99 94 90 49 45 53 39 22 20 17 12 10 9 9 8 7 8 10 13 12 12 15 14 13 14 15 21 25 29 32 33 33 29 26 32 40 48 42 40
100 86 99 100 100 100 100 100 67 55 56 63 48 29 21 19 17 15 12 11 12 13 14 15 14 13 13 14 14 22 28 23 31 36 39 33 25 30 32 30 37 42 45 42 39
100 94 100 100 100 100 100 95 54 49 54 80 61 50 32 27 24 20 16 14 16 18 18 17 20 16 15 15 18 24 25 31 36 35 46 51 22 31 33 42 44 40 38 36 39
100 94 99 100 99 100 100 80 65 72 57 42 67 64 52 47 35 22 19 19 20 19 19 20 19 17 18 19 21 24 32 37 42 67 52 62 21 33 47 52 56 59 51 42 42
100 100 100 100 99 100 100 88 66 62 66 62 71 77 64 52 41 31 27 22 22 22 24 27 29 27 21 26 36 43 41 44 79 85 47 54 48 50 56 53 58 57 52 50 45
97 100 100 100 100 100 100 80 76 72 72 66 67 66 70 60 48 47 48 38 34 36 32 35 39 40 38 43 52 35 59 85 81 58 75 47 64 58 58 60 59 58 55 53 54
100 100 100 100 100 100 93 96 100 90 60 35 31 50 63 62 67 69 75 64 62 48 58 63 54 37 39 27 51 82 80 70 69 72 79 62 45 57 56 52 52 55 60 54 55
100 100 100 100 100 100 90 90 86 99 94 86 82 83 70 70 81 88 96 97 84 75 78 87 85 52 62 87 98 98 52 71 69 78 80 70 55 67 74 72 66 54 57 70 73

GFSSW_500_rhum_201.txt.gz
RH
41 18 12 4 5 5 5 5 5 5 6 6 4 4 4 4 3 3 3 4 4 4 4 4 4 5 5 5 6 6 6 8 8 9 9 10 10 10 10 9 10 9 8 5 6
63 32 16 10 4 5 5 5 5 5 6 6 5 4 4 3 4 3 2 3 4 4 4 4 4 4 5 5 5 6 6 8 8 8 8 9 9 9 8 8 9 8 5 5 6
28 64 26 15 8 4 5 5 5 6 6 6 6 4 4 4 4 3 3 3 4 4 4 5 5 5 5 5 5 5 6 7 8 8 8 7 6 5 5 6 6 6 5 4 5
3 26 67 23 14 6 4 5 5 5 6 6 6 5 4 4 5 4 3 4 5 5 5 5 5 5 5 5 5 5 6 6 6 6 6 6 7 7 6 6 6 6 5 6 6
5 3 33 71 20 13 5 4 5 5 5 6 6 6 5 4 4 6 4 4 5 5 5 5 5 5 5 5 5 5 6 6 6 5 6 9 8 11 7 7 10 7 6 32 23
7 5 3 40 67 19 12 4 4 5 5 5 6 6 6 4 4 5 4 4 4 6 6 6 6 6 6 6 5 5 6 5 4 5 5 8 15 17 10 12 9 6 17 26 36
6 7 5 3 41 66 20 11 4 5 6 5 5 6 6 5 5 4 6 4 5 5 6 6 5 5 5 6 5 5 5 4 5 6 6 11 15 13 11 11 11 8 10 21 24
5 7 6 5 3 40 80 20 10 4 5 6 5 6 6 6 4 4 5 7 6 6 6 5 6 6 6 6 5 4 4 5 6 7 7 9 9 8 7 7 10 12 16 28 26
4 4 7 7 5 3 57 92 22 8 4 5 6 5 6 6 5 5 4 6 8 7 6 6 6 5 4 4 5 5 5 6 7 6 6 6 6 6 6 6 6 11 17 22 22
4 3 4 6 6 5 5 89 70 23 7 4 5 6 6 6 6 5 5 4 5 7 6 6 5 4 4 5 5 6 7 7 6 6 6 6 6 6 5 6 8 7 11 15 24
4 3 3 3 5 5 4 58 84 56 26 7 4 4 6 6 6 6 4 5 4 4 5 5 4 4 4 5 5 6 6 6 6 6 6 6 6 6 6 13 10 8 10 15 24
6 3 3 2 3 4 14 39 17 69 59 16 6 4 5 6 6 6 5 4 4 3 4 4 3 4 5 5 5 6 6 6 6 6 6 6 6 6 8 9 8 9 10 17 21
19 11 3 3 3 3 11 10 10 54 63 50 12 4 4 6 6 6 6 5 5 5 4 3 3 4 5 5 5 6 6 6 5 5 5 6 7 18 13 10 12 13 13 16 19
24 18 13 6 5 4 89 8 17 59 62 56 37 9 4 4 6 6 6 5 4 5 6 5 4 4 4 4 6 6 6 6 4 4 5 7 14 22 13 10 20 22 23 17 19
21 16 19 14 4 4 23 24 25 97 97 47 58 20 7 4 4 5 6 5 4 4 5 5 6 6 5 6 8 7 6 5 4 4 5 12 16 22 24 16 21 28 20 17 20
33 31 22 20 7 3 12 83 93 100 90 46 46 53 12 6 4 4 6 5 5 4 4 4 5 5 5 7 6 6 5 4 3 4 6 10 12 12 14 16 22 22 34 19 22
57 82 34 20 3 4 29 100 100 100 56 48 30 50 34 9 5 4 4 5 5 4 3 3 3 4 4 4 5 4 4 4 4 5 7 11 20 21 21 21 22 19 35 33 25
100 100 82 17 12 8 100 100 100 95 64 26 29 28 56 18 7 5 4 4 5 4 4 3 3 3 3 3 4 4 4 3 4 7 9 16 18 18 17 21 18 18 28 35 25
100 100 100 35 14 48 100 100 97 94 71 26 28 40 44 46 14 7 5 4 4 4 4 4 3 3 3 3 4 4 3 4 8 12 14 13 15 18 19 22 17 20 26 28 33
100 100 88 39 16 61 100 100 100 98 72 43 36 14 21 46 34 11 6 4 4 3 4 3 3 3 3 4 4 4 4 7 10 14 13 13 18 20 19 28 26 26 27 35 34
100 100 66 40 28 49 100 99 100 83 80 69 47 42 28 34 46 27 10 7 5 4 4 4 3 3 4 3 3 4 5 9 13 13 12 13 24 22 23 28 26 29 34 36 38
100 100 91 57 80 48 100 100 95 86 99 92 85 48 41 42 52 48 20 12 8 6 5 4 5 5 4 5 6 9 13 14 15 14 16 16 24 22 27 26 33 40 40 41 44
100 100 98 92 91 70 100 98 100 100 100 100 98 75 41 47 53 54 36 19 16 12 10 9 9 10 10 10 11 12 13 16 17 19 19 21 23 23 24 35 45 45 41 42 51
100 99 100 100 75 80 100 99 98 100 100 100 97 86 61 64 60 55 51 36 24 19 18 17 19 20 14 16 18 18 19 20 22 28 16 22 19 23 36 44 52 56 52 50 57
100 94 97 100 91 96 99 89 98 100 100 100 100 100 67 50 46 50 54 50 33 25 24 24 22 20 20 21 22 21 21 22 24 19 28 22 30 27 40 47 49 55 58 53 56
90 71 94 98 81 98 92 98 100 100 100 94 98 84 63 48 38 32 57 59 50 32 28 28 30 31 29 28 28 28 27 22 23 30 32 34 34 47 49 56 56 66 60 58 62
78 78 98 99 100 100 99 92 99 100 96 100 67 62 70 61 62 71 70 75 71 65 53 48 53 44 36 36 43 47 28 30 39 46 48 51 42 56 68 61 65 58 57 60 64

GFSSW_500_rhum_207.txt.gz
RH
7 55 37 14 19 9 31 25 7 5 4 5 5 5 5 5 5 4 4 4 4 3 3 4 4 4 5 6 6 7 7 8 19 11 10 6 7 7 8 8 8 7 7 7 6
6 13 60 40 13 18 6 50 9 7 4 5 5 5 6 5 5 5 4 4 4 4 4 4 4 4 4 5 6 6 7 12 17 5 7 6 6 4 7 8 7 6 6 6 6
8 5 18 68 36 16 15 11 36 11 7 4 5 5 6 6 6 5 5 4 4 4 4 4 4 4 4 5 5 6 6 9 5 6 6 6 6 4 6 7 7 10 9 7 6
9 8 4 15 73 39 18 12 6 16 12 7 4 5 6 7 7 5 5 4 4 4 4 3 4 4 4 4 5 5 5 5 6 6 6 6 5 4 5 7 10 12 12 10 7
11 10 8 4 14 74 41 19 11 6 10 11 8 4 6 6 7 6 6 5 4 4 4 4 3 4 4 4 4 4 5 4 5 5 6 5 5 4 6 9 11 13 13 12 9
14 16 11 8 4 17 76 42 19 10 6 6 7 7 5 5 6 6 6 6 5 4 4 4 4 3 4 5 4 4 4 4 4 4 5 5 5 4 7 10 11 13 11 8 11
9 17 14 12 7 4 12 80 45 20 10 5 6 7 7 5 5 6 7 6 6 5 4 5 4 3 4 4 5 4 4 4 4 5 5 5 4 4 6 8 9 14 11 6 6
12 11 14 10 10 6 4 8 78 52 21 10 6 6 6 6 5 6 6 6 6 5 4 4 5 4 3 3 4 5 4 4 5 5 5 5 4 6 5 5 7 10 8 6 6
14 11 10 9 8 9 6 4 6 65 63 22 11 5 5 6 6 5 6 6 6 6 4 4 6 5 4 4 5 5 5 5 6 5 6 5 5 6 5 5 7 8 6 6 7
14 13 10 8 9 8 8 5 4 4 44 76 22 12 6 5 6 5 6 6 6 6 5 5 6 6 4 5 4 6 5 5 6 8 6 5 5 5 4 5 6 6 6 6 7
13 13 14 11 10 10 9 8 6 4 5 60 57 23 15 6 6 6 5 6 6 6 6 6 5 4 5 5 6 6 6 6 6 16 4 6 5 4 5 6 6 6 6 6 8
6 10 11 14 11 10 10 10 8 6 5 6 42 71 32 15 6 6 6 5 6 6 6 6 5 5 7 6 6 7 6 6 7 8 6 5 4 4 5 6 6 6 6 7 11
9 6 7 10 11 10 10 10 7 7 6 4 4 27 78 32 14 6 7 6 5 6 6 6 6 6 8 8 5 6 6 6 7 9 6 4 4 5 6 6 6 6 6 11 18
17 9 8 8 10 10 10 8 6 6 7 6 5 5 12 78 33 13 6 7 7 6 6 6 6 6 7 7 8 6 7 8 8 8 5 6 4 5 6 6 6 5 6 11 17
30 16 13 9 9 10 8 8 8 6 11 8 6 6 8 20 57 35 10 7 7 6 7 5 6 6 5 5 8 8 10 9 7 6 5 4 4 4 5 5 6 5 5 11 11
34 28 31 26 16 11 10 9 11 12 13 10 9 8 8 6 14 57 52 12 7 9 6 6 7 7 6 6 7 7 9 8 7 6 4 4 4 4 4 4 5 5 4 5 8
30 31 29 29 20 26 20 16 34 36 8 7 12 8 8 6 6 15 70 41 10 6 6 6 6 6 7 6 6 7 5 6 6 5 3 5 5 3 3 4 4 5 4 4 6
21 31 31 22 42 37 45 48 56 33 8 6 7 8 7 9 6 8 14 63 56 11 6 6 7 6 5 6 6 6 6 5 5 5 3 6 3 3 5 4 4 4 4 4 4
14 30 27 24 33 43 46 60 66 26 13 10 17 40 9 8 9 9 14 9 59 34 9 6 6 7 7 6 8 7 7 4 21 14 8 3 6 3 3 4 4 4 4 3 4
35 24 21 27 27 30 54 52 46 30 16 17 16 35 56 16 12 12 17 7 8 61 60 11 6 7 8 7 7 10 8 20 13 8 8 4 4 4 8 3 3 4 4 3 4
52 46 42 37 33 44 61 52 33 30 24 17 17 14 13 62 76 51 11 8 6 7 66 60 38 10 20 6 6 7 8 8 10 8 6 4 5 10 12 4 3 3 3 3 4
68 53 27 37 51 77 100 50 47 32 32 25 21 61 26 27 70 98 70 6 8 7 10 40 87 40 11 8 8 10 9 8 9 5 6 5 4 6 4 3 3 3 3 3 4
70 95 75 71 74 81 98 100 98 56 40 34 26 20 24 28 76 100 81 6 7 10 12 13 67 82 27 48 20 6 5 7 9 7 10 6 3 4 5 4 4 3 3 4 5
83 60 91 90 81 92 100 90 100 99 55 39 41 28 16 100 100 96 100 38 22 22 20 45 47 61 88 35 13 11 9 6 6 7 6 5 4 4 4 4 4 3 4 4 7
45 75 79 93 50 83 96 93 71 60 63 54 45 29 18 28 92 100 83 65 61 92 58 91 64 51 51 90 79 28 12 9 8 6 6 4 4 4 4 4 3 4 4 4 9
43 46 81 77 62 98 92 100 100 100 72 66 54 60 19 46 98 99 100 87 70 84 76 73 58 45 43 51 84 69 36 13 10 7 6 5 4 4 4 4 4 5 5 8 12
91 62 89 100 92 72 97 58 89 100 100 100 72 59 53 32 100 98 100 81 98 100 89 94 56 72 60 36 54 65 94 74 29 11 8 7 6 6 5 6 9 13 16 13 13

GFSSW_500_rhum_210.txt.gz
RH
3 5 4 13 48 14 22 11 34 48 7 6 4 4 4 4 5 4 4 2 3 3 3 4 4 4 5 6 6 7 7 7 9 29 26 11 6 6 6 6 7 8 8 8 6
2 3 6 4 18 46 13 20 10 61 41 7 5 4 5 5 5 5 4 4 4 4 3 3 4 4 4 5 5 6 6 7 22 23 24 4 5 3 6 6 6 7 8 8 7
2 2 3 6 5 27 44 14 19 11 66 30 7 5 5 5 5 5 4 5 4 4 4 4 4 4 4 4 5 6 6 7 23 10 14 6 5 5 4 5 6 9 13 10 8
2 2 2 3 7 6 36 38 14 15 23 53 12 8 4 6 6 5 5 4 5 4 4 4 4 4 4 4 5 5 6 6 7 5 5 6 6 4 4 6 5 9 9 12 13
2 2 2 3 5 8 6 44 39 16 10 24 56 12 7 4 5 5 6 5 5 5 4 4 4 4 4 4 4 4 5 5 6 5 5 6 5 5 3 5 5 9 12 12 12
5 3 2 3 4 7 9 5 50 38 15 9 15 59 10 6 5 5 6 6 6 5 5 4 4 4 4 4 5 4 4 4 5 4 4 5 4 4 4 5 4 7 10 13 10
6 7 4 4 4 8 10 9 5 60 29 13 8 32 43 7 6 5 5 7 6 6 5 5 4 4 4 4 4 5 4 4 4 4 4 5 4 4 5 5 4 6 9 12 13
5 5 8 5 6 8 12 13 8 5 66 28 11 9 42 29 9 6 5 6 7 6 6 5 5 4 4 4 4 4 4 4 5 4 4 5 4 4 5 4 4 5 5 8 10
6 4 12 12 10 8 15 15 13 6 6 71 30 11 12 22 22 10 6 5 6 7 7 6 5 5 5 4 4 4 3 4 4 5 5 4 4 5 5 3 4 5 5 7 7
6 4 6 19 19 12 11 16 15 10 4 6 70 30 13 13 22 21 20 6 5 6 7 6 6 5 5 4 3 4 4 4 3 7 7 6 4 5 5 4 4 5 5 6 6
6 5 4 17 19 15 12 10 13 11 7 4 33 58 29 14 10 11 8 8 6 6 6 6 6 6 5 4 4 5 5 4 5 7 18 8 6 4 5 5 4 4 5 6 6
6 12 6 9 16 11 11 10 11 10 7 5 4 16 65 40 18 8 8 8 12 18 6 6 6 6 5 6 6 6 5 4 7 22 29 33 4 5 5 4 4 4 5 6 6
7 11 17 8 9 11 11 11 8 8 9 6 5 4 9 53 46 21 7 7 7 7 6 6 6 7 6 6 6 6 5 5 6 10 10 12 4 4 5 5 4 4 6 6 6
6 13 24 18 9 10 10 8 9 8 9 9 7 5 4 9 56 48 23 8 7 7 6 6 6 6 7 6 6 5 7 6 7 7 5 10 5 4 5 5 4 4 6 6 6
5 14 33 22 12 12 13 12 15 9 15 11 9 11 8 6 26 52 52 28 8 6 7 5 6 6 7 6 7 5 10 10 8 8 7 6 6 3 5 4 5 5 6 6 6
4 14 33 26 16 11 13 24 22 49 30 14 12 11 10 7 6 17 50 65 30 11 8 6 6 6 6 7 7 7 10 10 11 9 7 3 5 4 4 4 5 5 4 5 6
4 9 26 30 24 16 22 48 56 52 22 12 33 12 10 9 7 9 14 39 64 32 9 6 6 6 6 7 7 7 8 7 8 10 3 4 10 4 4 5 5 4 4 4 5
4 5 17 38 47 53 46 47 83 80 33 12 11 28 24 10 9 9 11 11 26 72 39 10 7 6 5 5 6 7 7 7 5 5 4 10 6 4 4 16 10 4 4 4 6
4 4 13 40 50 57 82 89 68 76 34 14 11 10 13 32 14 11 10 9 7 18 78 46 14 7 7 6 6 6 22 6 10 8 9 9 7 6 10 10 8 4 4 5 5
9 4 8 24 40 50 71 68 66 54 31 20 15 13 58 11 41 69 23 8 8 7 12 71 66 27 8 8 11 8 7 16 30 12 7 4 4 4 20 34 31 17 9 5 5
42 43 20 16 39 43 54 50 50 44 37 31 25 18 18 32 74 58 76 16 18 11 8 9 52 80 63 43 9 9 7 14 28 20 10 4 4 4 5 14 13 5 4 3 4
45 48 69 52 53 30 93 53 32 38 40 36 34 26 25 16 20 81 84 44 28 27 15 8 9 31 93 76 45 38 12 16 15 6 6 7 6 8 6 5 16 15 5 4 4
43 36 57 70 71 56 45 80 57 36 28 32 34 38 20 25 55 96 99 99 64 67 45 14 16 14 28 92 95 90 56 16 11 7 10 9 6 8 9 11 11 9 7 6 4
68 38 40 75 100 67 51 66 65 49 38 31 23 30 25 29 22 23 50 87 100 78 68 99 49 46 25 9 65 99 67 42 46 33 10 9 5 6 6 7 8 9 8 8 6
75 65 42 49 98 100 74 47 49 55 60 79 38 26 29 38 31 28 30 30 50 64 86 91 99 77 39 27 38 79 92 76 58 52 38 14 10 6 6 6 6 6 6 6 5
57 76 90 49 48 68 85 47 58 72 69 70 97 82 45 30 34 33 24 44 46 45 100 100 96 100 100 25 30 57 50 43 82 100 92 51 22 14 8 6 5 6 5 4 4
34 67 96 85 66 67 60 63 70 96 100 99 100 100 96 72 41 31 34 19 46 84 100 100 96 77 98 55 25 80 78 67 34 58 57 67 47 28 27 10 6 6 6 5 5